This is the latest recevied weather packets stored in our database for station/object OH6NMY. If no packets are shown the sender has not sent any weather packets the latest 10 day(s).
| Time | Temp. | Humidity | Pressure | Rain* | Wind** | Luminosity | Snow |
|---|---|---|---|---|---|---|---|
| 1777501054 | 3.33° C | 91% | 1021.7 hPa | 0 mm | - | - | - |
| 1777495114 | 3.33° C | 87% | 1022.4 hPa | 0 mm | - | - | - |
| 1777490254 | 3.33° C | 83% | 1022.6 hPa | 0 mm | - | - | - |
| 1777489174 | 3.33° C | 82% | 1022.8 hPa | 0 mm | - | - | - |
| 1777487554 | 3.89° C | 78% | 1022.9 hPa | 0 mm | - | - | - |
| 1777485523 | 4.44° C | 68% | 1023 hPa | 0 mm | - | - | - |
| 1777484314 | 5° C | 62% | 1023.1 hPa | 0 mm | - | - | - |
| 1777478374 | 7.22° C | 46% | 1023 hPa | 0 mm | - | - | - |
| 1777476753 | 7.22° C | 44% | 1023.4 hPa | 0 mm | - | - | - |
| 1777470813 | 7.78° C | 37% | 1023.9 hPa | 0 mm | - | - | - |
| 1777468113 | 8.33° C | 36% | 1024 hPa | 0 mm | - | - | - |
| 1777465007 | 8.33° C | 36% | 1024.4 hPa | 0 mm | - | - | - |
| 1777462174 | 8.33° C | 37% | 1024.9 hPa | 0 mm | - | - | - |
| 1777458934 | 7.78° C | 39% | 1025.3 hPa | 0 mm | - | - | - |
| 1777451913 | 6.11° C | 44% | 1026.2 hPa | 0 mm | - | - | - |
| 1777443274 | 3.89° C | 59% | 1027 hPa | 0 mm | - | - | - |
| 1777441113 | 2.22° C | 69% | 1027.3 hPa | 0 mm | - | - | - |
| 1777439494 | 2.22° C | 70% | 1027.3 hPa | 0 mm | - | - | - |
| 1777438414 | 1.11° C | 73% | 1027.2 hPa | 0 mm | - | - | - |
| 1777437334 | 0.56° C | 78% | 1026.8 hPa | 0 mm | - | - | - |
| 1777435713 | -0.56° C | 82% | 1026.8 hPa | 0 mm | - | - | - |
| 1777432474 | -2.22° C | 87% | 1026.9 hPa | 0 mm | - | - | - |
| 1777430854 | -2.22° C | 88% | 1026.8 hPa | 0 mm | - | - | - |
| 1777429774 | -2.22° C | 88% | 1026.7 hPa | 0 mm | - | - | - |
| 1777428693 | -2.22° C | 88% | 1026.8 hPa | 0 mm | - | - | - |
* Rain latest hour (hover to see other rain measurements)
** Current wind speed in m/s (hover to see current wind gust speed)